Regional Weather Roundup
Issued by NWS

Home | Current Version | Previous Version | Graphics & Text | Print | Product List | Glossary On
Versions: 1 2 3 4 5 6 7 8 9 10 11 12 13 14 15 16 17 18 19 20 21 22 23 24 25 26 27 28 29 30 31 32 33 34 35 36 37 38 39 40 41 42 43 44 45 46 47 48 49 50
000
ASUS43 KFSD 210010
RWRSD

WEATHER ROUNDUP FOR SOUTH DAKOTA
NATIONAL WEATHER SERVICE SIOUX FALLS SD
700 PM CDT WED SEP 20 2017

NOTE: "FAIR" INDICATES FEW OR NO CLOUDS BELOW 12,000 FEET WITH NO
SIGNIFICANT WEATHER AND/OR OBSTRUCTIONS TO VISIBILITY.


SDZ001>005-009-010-012>017-210100-
NORTHWEST AND NORTH CENTRAL SOUTH DAKOTA

CITY           SKY/WX    TMP DP  RH WIND       PRES   REMARKS
BUFFALO          N/A     68  27  21 SW9       29.64R
MOBRIDGE       CLEAR     71  38  29 S5        29.74R
$$

SDZ012>016-024>037-041>051-057-063-072>074-210100-
SOUTHWEST AND SOUTH CENTRAL SOUTH DAKOTA

CITY           SKY/WX    TMP DP  RH WIND       PRES   REMARKS
RAPID CTY ARPT CLEAR     72  28  20 SW16      29.74S
PIERRE         CLEAR     73  27  18 S8        29.75R
CUSTER         CLEAR     61  23  23 SW12G22   29.85R
ELLSWORTH AFB  CLEAR     73  29  20 SW7       29.74R
PHILIP         CLEAR     76  28  17 SW9       29.74R
PINE RIDGE     CLEAR     73  37  27 S18G28    29.80R
SPEARFISH      FAIR      66  27  22 W9G20     29.76R
WINNER         FAIR      71  39  31 S8        29.82R
$$

SDZ004>011-016>023-039-040-210100-
NORTHEAST SOUTH DAKOTA

CITY           SKY/WX    TMP DP  RH WIND       PRES   REMARKS
ABERDEEN       CLEAR     70  38  31 S6        29.79R
WATERTOWN      CLEAR     63  47  55 S9        29.85R
BROOKINGS      CLEAR     69  47  45 SW3       29.87R
SISSETON         N/A     66  45  46 S7        29.82R
$$

SDZ017-020-022-023-036>040-048>070-210100-
SOUTHEAST SOUTH DAKOTA

CITY           SKY/WX    TMP DP  RH WIND       PRES   REMARKS
SIOUX FALLS    CLEAR     67  48  50 SW5       29.87R
HURON          CLEAR     70  43  37 SE9       29.82R
CHAMBERLAIN    CLEAR     73  38  27 S3        29.82R
MITCHELL       CLEAR     72  44  36 S6        29.84R
YANKTON        CLEAR     69  50  50 SE5       29.87R
$$

ABBREVIATIONS USED IN REMARKS
   TC - TEMPERATURE IN CELSIUS
  WCI - WIND CHILL INDEX
   HX - HEAT INDEX
  VSB - VISIBILITY




USA.gov is the U.S. government's official web portal to all federal, state and local government web resources and services.